Location: Newark
(50.0306°N, 2.3272°E)
Time: 21:09:32
(UTC+00:00)

Transit 2A Rocket - Pass Details

Date: 11 December 2019
Orbit: 593 x 910 km, 66.7° (Epoch: 22 January)

Event Time Altitude Azimuth Distance (km) Brightness Sun altitude
Rises 22:27:21 0° 327° (NNW) 2,846 - -59.1°
Reaches altitude 10° 22:30:08 10° 345° (NNW) 1,956 - -59.4°
Maximum altitude 22:33:18 19° 32° (NNE) 1,474 - -59.7°
Drops below altitude 10° 22:36:34 10° 78° (ENE) 2,024 - -59.9°
Sets 22:39:30 0° 97° (E) 2,981 - -60.2°
